Starlink 31402

operational
NORAD ID: 59320 Int'l Des: 2024-057 Owner: SPXS Country: US Constellation: starlink
LEOCIRCULAR

Starlink 31402について

説明を読み込み中...

リアルタイム位置

3D地球を読み込み中...

次回通過

高度履歴

Altitude vs Time

uPlot chart will show altitude changes over time

軌道要素

1 59320U 24057A 25259.26032204 .00006898 00000-0 25989-3 0 9996
2 59320 43.0040 44.5475 0002019 275.3658 84.6963 15.27589275 83692
Epoch: Sep 16, 2025 • Age: 14 hours

現在のステータス

高度 482.4 km
速度 7.63 km/s
衛星直下点 14.76°N, 114.49°E
打ち上げ日 Mar 25, 2024
運用期間 1.4 years
タイプ internet

技術仕様

分類 Payload
質量 730.00 kg
乾燥質量 700.00 kg
総質量 730.00 kg
長さ 0.30 m
直径 4.10 m
スパン 29.00 m
形状 Box + pan
製造者 SPXS
バスタイプ Starlink V2M
フェーズステータス In Orbit
所有者/国 SPXS/US

大規模コンステレーション

Loading constellations...